Location: Viterbo
(42.4170°N, 12.1000°E)
Time: 11:31:49
(UTC+01:00)

STARS - Visible Passes

Search period start: 23 January 2020 00:00
Search period end: 02 February 2020 00:00
Orbit: 625 x 640 km, 98.3° (Epoch: 22 January)

Date Brightness Start Highest point End Pass type
(mag) Time Alt. Az. Time Alt. Az. Time Alt. Az.
24 Jan ? 06:29:58 10° E 06:32:30 15° ENE 06:35:02 10° NNE visible
25 Jan ? 06:49:48 10° ESE 06:53:17 23° ENE 06:56:48 10° NNE visible
28 Jan ? 06:19:02 10° ENE 06:20:23 11° ENE 06:21:45 10° NE visible
29 Jan ? 06:38:11 10° ESE 06:41:08 18° ENE 06:44:05 10° NNE visible
